Sitka, AK

10:16 AM AKST on December 05, 2016 (GMT -0900)
Sitka Rocky Gutierrez

Weather History for PASI - January, 2013

Change the Weather History Date:

Wednesday, January 2, 2013

  Actual Average Record
Temperature  
Mean Temperature 36 °F -  
Max Temperature 39 °F 38 °F 52 °F (2001)
Min Temperature 32 °F 30 °F 7 °F (1965)
Degree Days  
Heating Degree Days 30    
Moisture  
Dew Point 36 °F    
Average Humidity 97    
Maximum Humidity 100    
Minimum Humidity 93    
Precipitation  
Precipitation 0.06 in - - ()
Sea Level Pressure  
Sea Level Pressure 29.87 in    
Wind  
Wind Speed 2 mph (ENE)    
Max Wind Speed 10 mph    
Max Gust Speed -    
Visibility 8 miles    
Events Fog , Rain    
Averages and records for this station are not official NWS values.
T = Trace of Precipitation, MM = Missing Value Source: NWS Daily Summary

Daily Weather History Graph

Daily Weather History Graph

Search for Another Location

Airport or City:

Trip Planner

Search our weather history database for the weather conditions in past years. The results will help you decide how hot, cold, wet, or windy it might be!

Date:

Astronomy

Jan. 02, 2013 Rise Set
Actual Time 8:39 AM AKST 3:32 PM AKST
Civil Twilight 7:50 AM AKST 4:21 PM AKST
Nautical Twilight 7:00 AM AKST 5:11 PM AKST
Astronomical Twilight 6:13 AM AKST 5:58 PM AKST
Moon 10:30 PM AKST (1/2) 10:14 AM AKST (1/2)
Length of Visible Light 8h 30m
Length of Day
6h 53m
Waning Gibbous, 74% of the Moon is Illuminated
Jan 2
Waning Gibbous
Jan 4
Last Quarter
Jan 11
New
Jan 18
First Quarter
Jan 26
Full

Hourly Weather History & Observations

Time (AKST) Temp. Windchill Dew Point Humidity Pressure Visibility Wind Dir Wind Speed Gust Speed Precip Events Conditions
12:53 AM 37.9 °F 33.5 °F 37.0 °F 97% 29.84 in 10.0 mi ESE 5.8 mph - 0.06 in Rain Light Rain
1:53 AM 37.9 °F - 36.0 °F 93% 29.83 in 10.0 mi Calm Calm - 0.00 in   Overcast
2:16 AM 39.2 °F 34.2 °F 37.4 °F 93% 29.83 in 10.0 mi WNW 6.9 mph - N/A   Overcast
2:26 AM 39.2 °F 32.5 °F 37.4 °F 93% 29.83 in 10.0 mi NNW 10.4 mph - N/A   Overcast
3:51 AM 37.4 °F - 37.4 °F 100% 29.82 in 10.0 mi Calm Calm - N/A   Overcast
3:53 AM 37.9 °F - 37.0 °F 97% 29.82 in 10.0 mi Calm Calm - N/A   Overcast
4:26 AM 37.4 °F - 37.4 °F 100% 29.81 in 10.0 mi Calm Calm - N/A   Overcast
4:53 AM 37.0 °F 33.3 °F 36.0 °F 96% 29.80 in 10.0 mi East 4.6 mph - N/A   Overcast
5:53 AM 37.9 °F - 36.0 °F 93% 29.81 in 10.0 mi Calm Calm - N/A   Overcast
6:53 AM 37.9 °F - 37.0 °F 97% 29.81 in 10.0 mi Calm Calm - N/A   Mostly Cloudy
7:22 AM 37.4 °F 33.8 °F 35.6 °F 93% 29.81 in 10.0 mi NE 4.6 mph - N/A   Overcast
7:53 AM 37.0 °F 33.3 °F 37.0 °F 100% 29.81 in 10.0 mi East 4.6 mph - N/A   Overcast
7:59 AM 37.4 °F 33.8 °F 35.6 °F 93% 29.81 in 10.0 mi East 4.6 mph - N/A   Overcast
8:53 AM 37.0 °F - 37.0 °F 100% 29.83 in 10.0 mi Calm Calm - N/A   Overcast
9:53 AM 37.9 °F - 37.0 °F 97% 29.83 in 10.0 mi Calm Calm - N/A   Overcast
10:32 AM 37.4 °F 34.9 °F 37.4 °F 100% 29.83 in 10.0 mi NNW 3.5 mph - N/A   Mostly Cloudy
10:51 AM 37.4 °F - 37.4 °F 100% 29.83 in 10.0 mi Calm Calm - N/A   Overcast
10:53 AM 37.9 °F - 37.0 °F 97% 29.83 in 10.0 mi Calm Calm - N/A   Overcast
11:40 AM 37.4 °F 34.9 °F 37.4 °F 100% 29.83 in 10.0 mi East 3.5 mph - N/A   Overcast
11:53 AM 37.9 °F - 37.0 °F 97% 29.84 in 10.0 mi Calm Calm - N/A   Overcast
12:00 PM 37.4 °F - 37.4 °F 100% 29.84 in 10.0 mi Calm Calm - N/A   Overcast
12:09 PM 37.4 °F - 37.4 °F 100% 29.84 in 10.0 mi Calm Calm - N/A   Mostly Cloudy
12:24 PM 39.2 °F - 37.4 °F 93% 29.84 in 10.0 mi Calm Calm - N/A   Overcast
12:44 PM 37.4 °F - 37.4 °F 100% 29.84 in 10.0 mi Calm Calm - N/A   Overcast
12:53 PM 39.0 °F - 37.9 °F 96% 29.84 in 10.0 mi Calm Calm - N/A   Overcast
12:57 PM 39.2 °F - 37.4 °F 93% 29.85 in 10.0 mi Calm Calm - N/A   Overcast
1:53 PM 39.0 °F - 37.9 °F 96% 29.86 in 10.0 mi Calm Calm - N/A   Overcast
2:00 PM 39.2 °F - 37.4 °F 93% 29.85 in 10.0 mi Calm Calm - N/A   Overcast
2:21 PM 39.2 °F - 37.4 °F 93% 29.86 in 10.0 mi Calm Calm - N/A   Overcast
2:53 PM 39.0 °F - 37.9 °F 96% 29.87 in 10.0 mi Calm Calm - N/A   Overcast
3:51 PM 37.4 °F - 37.4 °F 100% 29.88 in 10.0 mi Calm Calm - N/A   Overcast
3:53 PM 37.9 °F - 37.0 °F 97% 29.88 in 10.0 mi Calm Calm - N/A   Overcast
4:53 PM 36.0 °F 32.1 °F 36.0 °F 100% 29.89 in 10.0 mi ESE 4.6 mph - N/A   Overcast
5:53 PM 34.0 °F - 34.0 °F 100% 29.90 in 9.0 mi Calm Calm - N/A   Mostly Cloudy
6:53 PM 34.0 °F 28.0 °F 33.1 °F 96% 29.91 in 6.0 mi East 6.9 mph - N/A   Clear
7:53 PM 33.1 °F 30.0 °F 32.0 °F 96% 29.93 in 10.0 mi East 3.5 mph - N/A Fog Patches of Fog
8:30 PM 33.8 °F - 32.0 °F 93% 29.95 in 10.0 mi Calm Calm - N/A Fog Patches of Fog
8:39 PM 32.0 °F - 30.2 °F 93% 29.94 in 1.0 mi Calm Calm - N/A   Mostly Cloudy
8:53 PM 33.1 °F - 33.1 °F 100% 29.94 in 0.2 mi Calm Calm - N/A Fog Fog
9:44 PM 32.0 °F - 32.0 °F 100% 29.96 in 0.8 mi Calm Calm - N/A   Overcast
9:53 PM 32.0 °F - 32.0 °F 100% 29.97 in 0.8 mi Calm Calm - N/A   Overcast
9:56 PM 32.0 °F - 32.0 °F 100% 29.98 in 1.0 mi Calm Calm - N/A   Partly Cloudy
10:01 PM 33.8 °F - 33.8 °F 100% 29.97 in 3.0 mi Calm Calm - N/A Fog Scattered Clouds
10:13 PM 32.0 °F 27.5 °F 32.0 °F 100% 29.97 in 1.0 mi NE 4.6 mph - N/A   Scattered Clouds
10:20 PM 32.0 °F - 32.0 °F 100% 29.97 in 0.5 mi Calm Calm - N/A Fog Fog
10:48 PM 32.0 °F 28.7 °F 32.0 °F 100% 29.97 in 2.0 mi East 3.5 mph - N/A   Partly Cloudy
10:53 PM 32.0 °F 28.7 °F 32.0 °F 100% 29.97 in 10.0 mi East 3.5 mph - N/A   Scattered Clouds
11:53 PM 33.1 °F - 32.0 °F 96% 29.98 in 10.0 mi Calm Calm - N/A   Partly Cloudy